Location: Bazugues
(43.4465°N, 0.3432°E)
Time: 14:39:25
(UTC+00:00)

Cosmos 1339 Rocket - Pass Details

Date: 12 January 2026
Orbit: 941 x 1006 km, 82.9° (Epoch: 18 February)

Event Time Altitude Azimuth Distance (km) Brightness Sun altitude
Rises 19:14:30 0° 186° (S) 3,668 7.6 -26.6°
Reaches altitude 10° 19:17:01 10° 186° (S) 2,715 6.9 -27.1°
Maximum altitude 19:23:15 90° 274° (W) 970 4.3 -28.2°
Enters shadow 19:25:12 47° 7° (N) 1,257 4.9 -28.6°
